Regional Weather Roundup
Issued by NWS Cleveland, OH

Home | Current Version | Previous Version | Graphics & Text | Print | Product List | Glossary On
Versions: 1 2 3 4 5 6 7 8 9 10 11 12 13 14 15 16 17 18 19 20 21 22 23 24 25 26 27 28 29 30 31 32 33 34 35 36 37 38 39 40 41 42 43 44 45 46 47 48 49 50
000
ASUS41 KCLE 261710
RWRCLE
OHIO REGIONAL WEATHER ROUNDUP
NATIONAL WEATHER SERVICE CLEVELAND, OH
100 PM EDT THU MAR 26 2015

NOTE: "FAIR" INDICATES FEW OR NO CLOUDS BELOW 12,000 FEET WITH NO
SIGNIFICANT WEATHER AND/OR OBSTRUCTIONS TO VISIBILITY.

OHZ001>008-015>018-024>027-034-035-043-044-261800-
   NORTHWEST OHIO

CITY           SKY/WX    TMP DP  RH WIND       PRES   REMARKS
DEFIANCE       CLOUDY    41  32  70 NW10      29.89F
FINDLAY        CLOUDY    38  35  89 NW9       29.87F
TOLEDO EXPRESS CLOUDY    39  35  86 NW5       29.87F
TOLEDO EXEC    CLOUDY    37  33  85 W6        29.89S FOG
LIMA           CLOUDY    39  36  89 NW10      29.87F
$$

OHZ009>014-019>023-028>033-038-089-261800-
   NORTHEAST OHIO

CITY           SKY/WX    TMP DP  RH WIND       PRES   REMARKS
CLE-HOPKINS    LGT RAIN  36  34  92 N9        29.87R FOG
CLE-LAKEFRONT  SNOW      34  32  92 NW7       29.85R VSB 1/4 WCI  28
CUY CO. ARPT   LGT RAIN  39  37  93 NE6       29.83F FOG
LORAIN-ELYRIA  MIX PCPN  35  34  96 NW9       29.86R FOG     WCI  28
ASHTABULA      MIX PCPN  35  33  92 N3        29.82F FOG
AKRON-CANTON   LGT RAIN  43  38  82 N9        29.81S
WOOSTER        LGT RAIN  41  37  86 NW9       29.82F
MANSFIELD      CLOUDY    40  38  93 NW7       29.82F
YOUNGSTOWN     LGT RAIN  40  38  93 N8        29.79F FOG
$$

OHZ042-051>053-060>062-070>072-077>081-261800-
  SOUTHWEST OHIO

CITY           SKY/WX    TMP DP  RH WIND       PRES   REMARKS
CINC-COVINGTON LGT RAIN  45  42  89 N12       29.88F
CINC-LUNKEN    LGT RAIN  46  44  93 NW8       29.89F
HAMILTON       LGT RAIN  46  46 100 N8        29.90F
DAYTON         LGT RAIN  44  41  89 NW9       29.87F
WRIGHT-PAT AFB LGT RAIN  44  42  91 NW8       29.86F
DAYTON GENERAL LGT RAIN  45  42  89 N12       29.86F
WILMINGTON     LGT RAIN  44  41  89 N13       29.85F FOG
$$

OHZ036-037-039>041-045>050-054>059-063>069-073>076-082>088-261800-
  CENTRAL AND SOUTHEAST OHIO

CITY           SKY/WX    TMP DP  RH WIND       PRES   REMARKS
COLUMBUS       CLOUDY    44  41  89 NW12      29.84S
OSU AIRPORT    LGT RAIN  43  40  89 N9        29.85R
BOLTON FIELD   CLOUDY    43  41  93 NW10      29.85R
RICKENBACK AFB RAIN      44  42  93 NW8       29.84R
NEWARK         CLOUDY    46  41  82 N7        29.82S
MARION         LGT RAIN  42  37  82 NW9       29.85F
LANCASTER      LGT RAIN  46  43  89 N9        29.84R FOG
ZANESVILLE     LGT RAIN  44  41  89 N8        29.81S FOG
NEW PHILLY     LGT RAIN  46  41  82 NW6       29.81F
$$



USA.gov is the U.S. government's official web portal to all federal, state and local government web resources and services.